When you browse on this site, cookies collect data to enhance your experience and personalize the content and advertising you see.
Visit our Privacy Policy to learn more. By continuing to use the site, you agree to this use of cookies and data.
  • In Österreich
  • Länderverzeichnis
  • Für 7 Tage
  • Wassertemperatur
  • Satellitenkarten
  • Wetterkarte
  • News
  • Widgets
  • user-avatar
    Anmelden

    Stündliche Wetter Rochefort-en-Terre

    Heute, 21 Februar, Donnerstag

    Zeit Temperatur Niederschläge Wind Luftdruck Luftfeuchtigkeit
    00:00 +6°C° 0 mm 2 m/S 762 mmHg 95%
    01:00 +6°C° 0 mm 2 m/S 762 mmHg 96%
    02:00 +6°C° 0 mm 2 m/S 762 mmHg 96%
    03:00 +6°C° 0 mm 2 m/S 762 mmHg 96%
    04:00 +6°C° 0 mm 2 m/S 762 mmHg 96%
    05:00 +5°C° 0 mm 2 m/S 762 mmHg 95%
    06:00 +5°C° 0 mm 2 m/S 762 mmHg 95%
    07:00 +6°C° 0 mm 2 m/S 763 mmHg 93%
    08:00 +7°C° 0 mm 2 m/S 763 mmHg 90%
    09:00 +7°C° 0 mm 2 m/S 763 mmHg 88%
    10:00 +9°C° 0 mm 2 m/S 763 mmHg 80%
    11:00 +11°C° 0 mm 3 m/S 763 mmHg 72%
    12:00 +13°C° 0 mm 3 m/S 764 mmHg 64%
    13:00 +13°C° 0 mm 3 m/S 764 mmHg 63%
    14:00 +15°C° 0 mm 2 m/S 763 mmHg 62%
    15:00 +15°C° 0 mm 2 m/S 763 mmHg 61%
    16:00 +14°C° 0 mm 2 m/S 764 mmHg 69%
    17:00 +12°C° 0 mm 2 m/S 764 mmHg 77%
    18:00 +10°C° 0 mm 2 m/S 764 mmHg 85%
    19:00 +10°C° 0 mm 2 m/S 764 mmHg 87%
    20:00 +9°C° 0 mm 2 m/S 765 mmHg 89%
    21:00 +8°C° 0 mm 2 m/S 765 mmHg 90%
    22:00 +8°C° 0 mm 2 m/S 765 mmHg 90%
    23:00 +8°C° 0 mm 3 m/S 765 mmHg 90%

    Morgen, 22 Februar, Freitag

    Zeit Temperatur Niederschläge Wind Luftdruck Luftfeuchtigkeit
    00:00 +7°C° 0 mm 3 m/S 766 mmHg 90%
    01:00 +7°C° 0 mm 3 m/S 766 mmHg 89%
    02:00 +7°C° 0 mm 2 m/S 766 mmHg 88%
    03:00 +7°C° 0 mm 2 m/S 766 mmHg 87%
    04:00 +6°C° 0 mm 2 m/S 766 mmHg 87%
    05:00 +5°C° 0 mm 3 m/S 766 mmHg 87%
    06:00 +5°C° 0 mm 3 m/S 766 mmHg 87%
    07:00 +7°C° 0 mm 3 m/S 766 mmHg 84%
    08:00 +8°C° 0 mm 3 m/S 767 mmHg 81%
    09:00 +9°C° 0 mm 3 m/S 767 mmHg 77%
    10:00 +10°C° 0 mm 3 m/S 767 mmHg 74%
    11:00 +12°C° 0 mm 3 m/S 767 mmHg 70%
    12:00 +14°C° 0 mm 3 m/S 767 mmHg 66%
    13:00 +15°C° 0 mm 4 m/S 767 mmHg 66%
    14:00 +15°C° 0 mm 4 m/S 766 mmHg 65%
    15:00 +17°C° 0 mm 4 m/S 766 mmHg 65%
    16:00 +14°C° 0 mm 4 m/S 766 mmHg 72%
    17:00 +13°C° 0 mm 3 m/S 766 mmHg 79%
    18:00 +11°C° 0 mm 3 m/S 766 mmHg 87%
    19:00 +10°C° 0 mm 3 m/S 766 mmHg 87%
    20:00 +8°C° 0 mm 4 m/S 766 mmHg 88%
    21:00 +8°C° 0 mm 4 m/S 766 mmHg 88%
    22:00 +7°C° 0 mm 4 m/S 766 mmHg 88%
    23:00 +7°C° 0 mm 4 m/S 766 mmHg 87%

    übermorgen, 23 Februar, Samstag

    Zeit Temperatur Niederschläge Wind Luftdruck Luftfeuchtigkeit
    00:00 +7°C° 0 mm 4 m/S 765 mmHg 87%
    01:00 +7°C° 0 mm 3 m/S 765 mmHg 88%
    02:00 +7°C° 0 mm 3 m/S 765 mmHg 90%
    03:00 +7°C° 0 mm 3 m/S 765 mmHg 91%
    04:00 +7°C° 0 mm 3 m/S 765 mmHg 92%
    05:00 +7°C° 0 mm 3 m/S 765 mmHg 93%
    06:00 +5°C° 0 mm 3 m/S 765 mmHg 94%
    07:00 +7°C° 0 mm 3 m/S 765 mmHg 92%
    08:00 +8°C° 0 mm 3 m/S 766 mmHg 89%
    09:00 +9°C° 0 mm 3 m/S 766 mmHg 87%
    10:00 +11°C° 0 mm 3 m/S 766 mmHg 81%
    11:00 +14°C° 0 mm 2 m/S 766 mmHg 75%
    12:00 +16°C° 0 mm 2 m/S 766 mmHg 69%
    13:00 +16°C° 0 mm 2 m/S 766 mmHg 68%
    14:00 +18°C° 0 mm 1 m/S 766 mmHg 66%
    15:00 +16°C° 0 mm 0 m/S 766 mmHg 64%
    16:00 +16°C° 0 mm 1 m/S 766 mmHg 70%
    17:00 +14°C° 0 mm 1 m/S 766 mmHg 77%
    18:00 +12°C° 0 mm 1 m/S 766 mmHg 83%
    19:00 +12°C° 0 mm 1 m/S 766 mmHg 84%
    20:00 +11°C° 0 mm 1 m/S 766 mmHg 86%
    21:00 +11°C° 0 mm 1 m/S 767 mmHg 88%
    22:00 +10°C° 0 mm 1 m/S 767 mmHg 88%
    23:00 +10°C° 0 mm 1 m/S 767 mmHg 89%

    24 Februar, Sonntag

    Zeit Temperatur Niederschläge Wind Luftdruck Luftfeuchtigkeit
    00:00 +9°C° 0 mm 2 m/S 767 mmHg 90%
    01:00 +8°C° 0 mm 2 m/S 767 mmHg 90%
    02:00 +9°C° 0 mm 1 m/S 767 mmHg 90%
    03:00 +8°C° 0 mm 1 m/S 767 mmHg 89%
    04:00 +7°C° 0 mm 2 m/S 767 mmHg 89%
    05:00 +7°C° 0 mm 2 m/S 767 mmHg 90%
    06:00 +6°C° 0 mm 2 m/S 767 mmHg 90%
    07:00 +7°C° 0 mm 2 m/S 767 mmHg 87%
    08:00 +8°C° 0 mm 2 m/S 767 mmHg 84%
    09:00 +9°C° 0 mm 2 m/S 767 mmHg 81%
    10:00 +10°C° 0 mm 2 m/S 767 mmHg 76%
    11:00 +13°C° 0 mm 2 m/S 767 mmHg 70%
    12:00 +15°C° 0 mm 2 m/S 767 mmHg 65%
    13:00 +15°C° 0 mm 2 m/S 767 mmHg 63%
    14:00 +16°C° 0 mm 2 m/S 767 mmHg 62%
    15:00 +16°C° 0 mm 1 m/S 767 mmHg 61%
    16:00 +15°C° 0 mm 1 m/S 767 mmHg 67%
    17:00 +13°C° 0 mm 1 m/S 767 mmHg 73%
    18:00 +11°C° 0 mm 1 m/S 767 mmHg 79%
    19:00 +11°C° 0 mm 1 m/S 768 mmHg 81%
    20:00 +10°C° 0 mm 1 m/S 768 mmHg 83%
    21:00 +9°C° 0 mm 1 m/S 769 mmHg 85%
    22:00 +9°C° 0 mm 1 m/S 769 mmHg 86%
    23:00 +8°C° 0 mm 1 m/S 769 mmHg 86%

    25 Februar, Montag

    Zeit Temperatur Niederschläge Wind Luftdruck Luftfeuchtigkeit
    00:00 +7°C° 0 mm 2 m/S 769 mmHg 86%
    01:00 +7°C° 0 mm 2 m/S 769 mmHg 86%
    02:00 +6°C° 0 mm 2 m/S 768 mmHg 87%
    03:00 +6°C° 0 mm 2 m/S 768 mmHg 88%
    04:00 +6°C° 0 mm 2 m/S 768 mmHg 88%
    05:00 +5°C° 0 mm 2 m/S 768 mmHg 88%
    06:00 +5°C° 0 mm 2 m/S 768 mmHg 89%
    07:00 +6°C° 0 mm 2 m/S 768 mmHg 86%
    08:00 +7°C° 0 mm 2 m/S 768 mmHg 83%
    09:00 +8°C° 0 mm 2 m/S 768 mmHg 80%
    10:00 +10°C° 0 mm 2 m/S 768 mmHg 76%
    11:00 +13°C° 0 mm 2 m/S 768 mmHg 72%
    12:00 +15°C° 0 mm 2 m/S 768 mmHg 69%
    13:00 +15°C° 0 mm 2 m/S 768 mmHg 68%
    14:00 +16°C° 0 mm 2 m/S 767 mmHg 68%
    15:00 +16°C° 0 mm 2 m/S 767 mmHg 67%
    16:00 +15°C° 0 mm 2 m/S 767 mmHg 74%
    17:00 +14°C° 0 mm 2 m/S 767 mmHg 80%
    18:00 +11°C° 0 mm 3 m/S 766 mmHg 87%
    19:00 +10°C° 0 mm 3 m/S 766 mmHg 88%
    20:00 +9°C° 0 mm 3 m/S 766 mmHg 89%
    21:00 +9°C° 0 mm 3 m/S 766 mmHg 90%
    22:00 +8°C° 0 mm 3 m/S 766 mmHg 89%
    23:00 +8°C° 0 mm 3 m/S 766 mmHg 88%

    26 Februar, Dienstag

    Zeit Temperatur Niederschläge Wind Luftdruck Luftfeuchtigkeit
    00:00 +7°C° 0 mm 3 m/S 765 mmHg 87%
    01:00 +5°C° 0 mm 3 m/S 765 mmHg 87%
    02:00 +5°C° 0 mm 3 m/S 765 mmHg 88%
    03:00 +5°C° 0 mm 3 m/S 764 mmHg 88%
    04:00 +4°C° 0 mm 3 m/S 764 mmHg 89%
    05:00 +4°C° 0 mm 3 m/S 764 mmHg 90%
    06:00 +4°C° 0 mm 3 m/S 763 mmHg 91%
    07:00 +5°C° 0 mm 4 m/S 763 mmHg 88%
    08:00 +6°C° 0 mm 4 m/S 763 mmHg 84%
    09:00 +7°C° 0 mm 4 m/S 763 mmHg 81%
    10:00 +8°C° 0 mm 4 m/S 763 mmHg 78%
    11:00 +11°C° 0 mm 4 m/S 763 mmHg 76%
    12:00 +13°C° 0 mm 4 m/S 762 mmHg 73%
    13:00 +14°C° 0 mm 4 m/S 762 mmHg 73%
    14:00 +15°C° 0 mm 4 m/S 761 mmHg 73%
    15:00 +17°C° 0 mm 4 m/S 761 mmHg 72%
    16:00 +14°C° 0 mm 4 m/S 761 mmHg 78%
    17:00 +13°C° 0 mm 3 m/S 761 mmHg 83%
    18:00 +12°C° 0 mm 3 m/S 760 mmHg 88%
    19:00 +11°C° 0 mm 3 m/S 760 mmHg 89%
    20:00 +11°C° 0 mm 3 m/S 760 mmHg 90%
    21:00 +10°C° 0 mm 4 m/S 760 mmHg 91%
    22:00 +10°C° 0 mm 4 m/S 760 mmHg 90%
    23:00 +10°C° 0 mm 4 m/S 760 mmHg 89%
    Mehr zeigen